Regional Weather Roundup
Issued by NWS Bismarck, ND

Home | Current Version | Previous Version | Text Only | Print | Product List | Glossary On
Versions: 1 2 3 4 5 6 7 8 9 10 11 12 13 14 15 16 17 18 19 20 21 22 23 24 25 26 27 28 29 30 31 32 33 34 35 36 37 38 39 40 41 42 43 44 45 46 47 48 49 50
000
ASUS43 KBIS 190820
RWRBIS

NWR BROADCAST TEXT
NATIONAL WEATHER SERVICE BISMARCK ND
300 AM CDT SUN APR 19 2015

NOTE: "FAIR" INDICATES FEW OR NO CLOUDS BELOW 12,000 FEET WITH NO
SIGNIFICANT WEATHER AND/OR OBSTRUCTIONS TO VISIBILITY.


CITY           SKY/WX    TMP DP  RH WIND       PRES   REMARKS
WILLISTON      CLEAR     37  26  64 W13       30.02F
MINOT          CLOUDY    43  33  68 W17       29.91F
MINOT AFB      CLOUDY    42  38  89 NW13      29.91F
BISMARCK       CLOUDY    45  38  76 N14       29.90F
DICKINSON      MOCLDY    38  30  73 W10       29.99S
GARRISON         N/A     42  35  76 NW17      29.93F
HETTINGER ARPT CLOUDY    39  31  72 NW14      30.01S
JAMESTOWN      LGT RAIN  47  45  93 NW14G21   29.79F
BEACH          FAIR      34  23  64 NW13      30.06F
CARRINGTON     LGT RAIN  45  45 100 NW17G24   29.83F
CROSBY         CLOUDY    37  30  75 W14       29.99S
HARVEY           N/A    N/A N/A N/A MISG        N/A
HAZEN          CLOUDY    41  32  70 NW12      29.96F
LINTON         LGT RAIN  43  43 100 NW21G32   29.88R
MANDAN         CLOUDY    43  39  87 NW17G23   29.91F
OAKES            N/A     48  48 100 NW15      29.77F
RUGBY            N/A    N/A N/A N/A NW15      29.85F
STANLEY        FAIR      36  32  87 W10       29.96F
TIOGA          FAIR      34  30  86 NW13      30.00F
WATFORD CITY   FAIR      36  27  69 W9        30.00F
$$

CITY           SKY/WX    TMP DP  RH WIND       PRES   REMARKS
GRAND FORKS    LGT RAIN  49  45  86 NW7       29.79F
GRAND FORKS AF DRIZZLE   50  45  81 NW6       29.78F
DEVILS LAKE    CLOUDY    46  41  81 NW17      29.81F
FARGO          RAIN      52  50  93 CALM      29.76F FOG
CANDO          LGT RAIN  45  43  93 NW14      29.84S
CAVALIER       LGT RAIN  50  41  71 NW8       29.79S
GRAFTON        DRIZZLE   50  48  93 W14       29.79S
GWINNER        CLOUDY    50  50 100 NW8       29.77F
LANGDON        DRIZZLE   46  43  87 N10       29.80F
ROLLA          LGT RAIN  43  41  93 NW17G23   29.84F
WALHALLA       LGT RAIN  48  48 100 W6        29.80S
$$

CITY           SKY/WX    TMP DP  RH WIND       PRES   REMARKS
ABERDEEN       CLOUDY    49  47  93 N17       29.78F
MOBRIDGE       CLOUDY    47  41  80 N21G36    29.85S
BUFFALO          N/A     38  26  62 NW16      29.98R
RAPID CITY     CLOUDY    44  34  67 NW24G32   29.99F
GLASGOW        CLEAR     34  22  61 W9        30.13F
SIDNEY         CLEAR     37  25  60 W10       30.05F
WOLF POINT     PTCLDY    34  23  64 W8        30.11F
GLENDIVE       CLEAR     37  21  52 NW15      30.09F
MILES CITY     CLEAR     35  18  49 NW13      30.15F
BAKER          CLEAR     34  22  61 W8        30.09S
$$

CITY           SKY/WX    TMP DP  RH WIND       PRES   REMARKS
BILLINGS       CLEAR     36  27  69 NW12      30.25S
GREAT FALLS    CLOUDY    36  32  85 SW6       30.27S
REGINA         CLOUDY    39  34  81 NW22G33   29.99F
ESTEVAN        MOCLDY    32  28  86 W9        29.96
$$



USA.gov is the U.S. government's official web portal to all federal, state and local government web resources and services.